This is the latest recevied weather packets stored in our database for station/object KE5VT. If no packets are shown the sender has not sent any weather packets the latest 10 day(s).
| Time | Temp. | Humidity | Pressure | Rain* | Wind** | Luminosity | Snow |
|---|---|---|---|---|---|---|---|
| 1778012780 | 26.11° C | 39% | 1010.7 hPa | 0 mm | - | 390 W/m² | - |
| 1778012477 | 26.67° C | 40% | 1010.6 hPa | 0 mm | - | 158 W/m² | - |
| 1778012173 | 26.11° C | 39% | 1010.8 hPa | 0 mm | - | 208 W/m² | - |
| 1778011871 | 26.11° C | 39% | 1010.8 hPa | 0 mm | - | 234 W/m² | - |
| 1778011569 | 26.11° C | 38% | 1011 hPa | 0 mm | - | 422 W/m² | - |
| 1778011265 | 26.11° C | 39% | 1010.7 hPa | 0 mm | - | 219 W/m² | - |
| 1778010961 | 26.11° C | 39% | 1010.8 hPa | 0 mm | - | 333 W/m² | - |
| 1778010660 | 25.56° C | 38% | 1010.9 hPa | 0 mm | - | 163 W/m² | - |
| 1778010356 | 25.56° C | 40% | 1011 hPa | 0 mm | - | 125 W/m² | - |
| 1778010051 | 25.56° C | 39% | 1011.1 hPa | 0 mm | - | 119 W/m² | - |
| 1778009749 | 26.11° C | 39% | 1011.2 hPa | 0 mm | - | 498 W/m² | - |
| 1778009446 | 25° C | 41% | 1011.5 hPa | 0 mm | - | 529 W/m² | - |
| 1778009145 | 25.56° C | 40% | 1011.4 hPa | 0 mm | - | 116 W/m² | - |
| 1778008842 | 26.11° C | 39% | 1011.3 hPa | 0 mm | - | 560 W/m² | - |
| 1778008540 | 25.56° C | 40% | 1011.5 hPa | 0 mm | - | 427 W/m² | - |
| 1778008238 | 26.11° C | 38% | 1011.5 hPa | 0 mm | - | 147 W/m² | - |
| 1778007932 | 26.11° C | 39% | 1011.7 hPa | 0 mm | - | 173 W/m² | - |
| 1778007629 | 26.67° C | 38% | 1011.6 hPa | 0 mm | - | 147 W/m² | - |
| 1778007325 | 26.11° C | 38% | 1011.6 hPa | 0 mm | - | 403 W/m² | - |
| 1778007022 | 26.11° C | 38% | 1011.9 hPa | 0 mm | - | 773 W/m² | - |
| 1778006719 | 25.56° C | 40% | 1011.9 hPa | 0 mm | - | 106 W/m² | - |
| 1778006416 | 26.11° C | 38% | 1012 hPa | 0 mm | - | 730 W/m² | - |
| 1778006113 | 26.11° C | 38% | 1012.1 hPa | 0 mm | - | 272 W/m² | - |
| 1778005810 | 25.56° C | 40% | 1012.2 hPa | 0 mm | - | 186 W/m² | - |
| 1778005506 | 25° C | 40% | 1012.1 hPa | 0 mm | - | 155 W/m² | - |
* Rain latest hour (hover to see other rain measurements)
** Current wind speed in m/s (hover to see current wind gust speed)